Bariloche, Argentina

10:17 PM America on August 20, 2017 (GMT +0000)
S C De Bariloche

Weather History for SAZS - October, 2012

Change the Weather History Date:

Saturday, October 6, 2012

  Actual Average Record
Temperature  
Mean Temperature 38 °F -  
Max Temperature 57 °F 58 °F 71 °F (2014)
Min Temperature 20 °F 35 °F 20 °F (2012)
Degree Days  
Heating Degree Days 26    
Moisture  
Dew Point 21 °F    
Average Humidity 54    
Maximum Humidity 86    
Minimum Humidity 15    
Precipitation  
Precipitation 0.00 in 0.05 in - ()
Sea Level Pressure  
Sea Level Pressure 30.01 in    
Wind  
Wind Speed 4 mph ()    
Max Wind Speed 23 mph    
Max Gust Speed -    
Visibility 6.1 miles    
Events      
Averages and records for this station are not official NWS values.
T = Trace of Precipitation, MM = Missing Value Source: Averaged Metar Reports

Daily Weather History Graph

Daily Weather History Graph

Search for Another Location

Airport or City:

Trip Planner

Search our weather history database for the weather conditions in past years. The results will help you decide how hot, cold, wet, or windy it might be!

Date:

Astronomy

Oct. 06, 2012 Rise Set
Actual Time 7:09 AM -03 7:56 PM -03
Civil Twilight 6:41 AM -03 8:24 PM -03
Nautical Twilight 6:08 AM -03 8:57 PM -03
Astronomical Twilight 5:34 AM -03 9:31 PM -03
Moon 1:19 AM -03 (10/6) 11:01 AM -03 (10/6)
Length of Visible Light 13h 42m
Length of Day
12h 47m
Waning Gibbous, 66% of the Moon is Illuminated
Oct 6
Waning Gibbous
Oct 8
Last Quarter
Oct 15
New
Oct 22
First Quarter
Oct 29
Full

Hourly Weather History & Observations

Time (-03) Temp. Windchill Dew Point Humidity Pressure Visibility Wind Dir Wind Speed Gust Speed Precip Events Conditions
12:00 AM 28.4 °F - 23.0 °F 80% 30.06 in - Calm Calm - N/A   Clear
1:00 AM 23.0 °F - 19.4 °F 86% 30.06 in - Calm Calm - N/A   Clear
2:00 AM 21.2 °F - 17.6 °F 86% 30.06 in - Calm Calm - N/A   Clear
3:00 AM 21 °F - 15 °F 70%  in 6 mi Calm Calm - -  
3:00 AM 21.2 °F - 15.8 °F 80% 30.06 in - Calm Calm - N/A   Clear
4:00 AM 23.0 °F 18.4 °F 19.4 °F 86% 30.04 in - ESE 3.5 mph - N/A   Clear
5:00 AM 23.0 °F 15.8 °F 19.4 °F 86% 30.04 in - South 5.8 mph - N/A   Clear
6:00 AM 24.8 °F 17.9 °F 17.6 °F 74% 30.04 in - South 5.8 mph - N/A   Clear
7:00 AM 24.8 °F 16.9 °F 15.8 °F 69% 30.04 in - SSE 6.9 mph - N/A   Clear
8:00 AM 26.6 °F - 17.6 °F 69% 30.06 in - Calm Calm - N/A   Clear
9:00 AM 31 °F - 21 °F 54%  in 6 mi Calm Calm - -   Scattered Clouds
9:00 AM 32.0 °F - 21.2 °F 64% 30.06 in - Calm Calm - N/A   Clear
10:00 AM 41.0 °F - 23.0 °F 49% 30.04 in - Calm Calm - N/A   Clear
11:00 AM 42.8 °F - 17.6 °F 36% 30.04 in - Calm Calm - N/A   Clear
12:00 PM 46.4 °F - 15.8 °F 29% 30.01 in - Calm Calm - N/A   Clear
1:00 PM 50.0 °F - 17.6 °F 28% 29.98 in - North 4.6 mph - N/A   Clear
2:00 PM 51.8 °F - 15.8 °F 24% 29.95 in 6.2 mi Calm Calm - N/A   Mostly Cloudy
3:00 PM 54 °F - 20 °F 15%  in 6 mi NW 6.9 mph - -   Partly Cloudy
3:00 PM 53.6 °F - 19.4 °F 26% 29.92 in - NW 6.9 mph - N/A   Clear
4:00 PM 57.2 °F - 21.2 °F 25% 29.92 in - NW 11.5 mph - N/A   Clear
5:00 PM 53.6 °F - 23.0 °F 30% 29.92 in 6.2 mi WNW 13.8 mph - N/A   Mostly Cloudy
6:00 PM 53.6 °F - 23.0 °F 30% 29.92 in 6.2 mi NW 18.4 mph - N/A   Mostly Cloudy
7:00 PM 51.8 °F - 24.8 °F 35% 29.95 in 6.2 mi WNW 23.0 mph - N/A   Mostly Cloudy
8:00 PM 48.2 °F - 30.2 °F 50% 29.95 in 6.2 mi NW 11.5 mph - N/A   Mostly Cloudy
9:00 PM 46.4 °F 38.3 °F 26.6 °F 46% 29.98 in 6.2 mi NW 23.0 mph - N/A   Mostly Cloudy
10:00 PM 44.6 °F 37.2 °F 32.0 °F 61% 30.04 in 6.2 mi WNW 17.3 mph - N/A   Mostly Cloudy
11:00 PM 41.0 °F - 32.0 °F 70% 30.09 in 6.2 mi Calm Calm - N/A   Scattered Clouds